TimeCDT,TemperatureF,Dew PointF,Humidity,Sea Level PressureIn,VisibilityMPH,Wind Direction,Wind SpeedMPH,Gust SpeedMPH,PrecipitationIn,Events,Conditions,WindDirDegrees,DateUTC
12:14 AM,62.6,42.8,48,29.68,10.0,WSW,6.9,-,N/A,,Clear,240,2013-05-14 05:14:00
12:33 AM,62.6,42.8,48,29.68,10.0,SW,3.5,-,N/A,,Clear,230,2013-05-14 05:33:00
12:53 AM,60.8,42.8,52,29.68,10.0,WSW,9.2,-,N/A,,Clear,250,2013-05-14 05:53:00
1:13 AM,59.0,42.8,55,29.68,10.0,WSW,5.8,-,N/A,,Clear,240,2013-05-14 06:13:00
1:33 AM,57.2,42.8,59,29.68,10.0,SW,4.6,-,N/A,,Clear,230,2013-05-14 06:33:00
1:53 AM,59.0,42.8,55,29.68,10.0,SW,3.5,-,N/A,,Clear,220,2013-05-14 06:53:00
2:13 AM,57.2,44.6,63,29.67,10.0,Calm,Calm,-,N/A,,Clear,0,2013-05-14 07:13:00
2:33 AM,55.4,42.8,63,29.67,10.0,Calm,Calm,-,N/A,,Clear,0,2013-05-14 07:33:00
2:54 AM,53.6,44.6,72,29.67,10.0,Calm,Calm,-,N/A,,Clear,0,2013-05-14 07:54:00
3:14 AM,53.6,44.6,72,29.66,10.0,Calm,Calm,-,N/A,,Clear,0,2013-05-14 08:14:00
3:33 AM,53.6,42.8,67,29.66,10.0,South,3.5,-,N/A,,Clear,190,2013-05-14 08:33:00
3:53 AM,55.4,42.8,63,29.65,10.0,South,3.5,-,N/A,,Clear,180,2013-05-14 08:53:00
4:14 AM,53.6,42.8,67,29.64,10.0,South,3.5,-,N/A,,Clear,170,2013-05-14 09:14:00
4:53 AM,51.8,42.8,71,29.61,10.0,SE,6.9,-,N/A,,Clear,140,2013-05-14 09:53:00
5:13 AM,55.4,42.8,63,29.61,10.0,SSE,4.6,-,N/A,,Clear,160,2013-05-14 10:13:00
5:33 AM,55.4,42.8,63,29.61,10.0,Calm,Calm,-,N/A,,Clear,0,2013-05-14 10:33:00
5:53 AM,53.6,42.8,67,29.62,10.0,SSE,3.5,-,N/A,,Clear,150,2013-05-14 10:53:00
6:13 AM,53.6,44.6,72,29.62,7.0,East,6.9,-,N/A,,Clear,90,2013-05-14 11:13:00
6:33 AM,55.4,44.6,67,29.61,10.0,SE,3.5,-,N/A,,Clear,130,2013-05-14 11:33:00
6:54 AM,57.2,44.6,63,29.61,10.0,SE,4.6,-,N/A,,Scattered Clouds,130,2013-05-14 11:54:00
7:13 AM,57.2,44.6,63,29.59,10.0,East,6.9,-,N/A,,Scattered Clouds,100,2013-05-14 12:13:00
7:34 AM,62.6,44.6,52,29.58,10.0,SE,8.1,-,N/A,,Clear,130,2013-05-14 12:34:00
7:53 AM,64.4,44.6,49,29.59,10.0,East,3.5,-,N/A,Thunderstorm,Thunderstorm,80,2013-05-14 12:53:00
8:13 AM,60.8,48.2,63,29.57,10.0,ESE,10.4,-,N/A,Rain,Light Rain,120,2013-05-14 13:13:00
8:33 AM,64.4,46.4,52,29.57,10.0,ESE,8.1,-,N/A,,Scattered Clouds,110,2013-05-14 13:33:00
8:54 AM,62.6,48.2,59,29.58,10.0,NNE,11.5,-,N/A,,Clear,30,2013-05-14 13:54:00
9:14 AM,62.6,46.4,55,29.58,10.0,NE,16.1,-,N/A,,Scattered Clouds,40,2013-05-14 14:14:00
9:33 AM,66.2,44.6,46,29.55,10.0,East,13.8,-,N/A,,Clear,100,2013-05-14 14:33:00
9:53 AM,71.6,46.4,41,29.52,10.0,ESE,15.0,21.9,N/A,,Clear,110,2013-05-14 14:53:00
10:13 AM,73.4,46.4,38,29.52,10.0,SE,13.8,-,N/A,,Clear,130,2013-05-14 15:13:00
10:34 AM,78.8,44.6,30,29.50,10.0,SE,13.8,-,N/A,,Clear,140,2013-05-14 15:34:00
10:53 AM,82.4,44.6,26,29.51,10.0,SSE,11.5,-,N/A,,Clear,160,2013-05-14 15:53:00
11:13 AM,86.0,42.8,22,29.52,10.0,South,8.1,-,N/A,,Clear,190,2013-05-14 16:13:00
11:34 AM,87.8,42.8,21,29.52,10.0,WSW,9.2,-,N/A,,Clear,250,2013-05-14 16:34:00
11:53 AM,87.8,42.8,21,29.52,10.0,West,12.7,18.4,N/A,,Clear,260,2013-05-14 16:53:00
12:13 PM,89.6,42.8,20,29.53,10.0,WNW,16.1,19.6,N/A,,Clear,290,2013-05-14 17:13:00
12:34 PM,89.6,42.8,20,29.54,10.0,NW,17.3,24.2,N/A,,Clear,320,2013-05-14 17:34:00
12:54 PM,89.6,42.8,20,29.54,10.0,WNW,16.1,24.2,N/A,,Clear,300,2013-05-14 17:54:00
1:13 PM,91.4,42.8,18,29.54,10.0,NW,18.4,26.5,N/A,,Clear,310,2013-05-14 18:13:00
1:34 PM,93.2,42.8,17,29.54,10.0,NW,18.4,26.5,N/A,,Clear,310,2013-05-14 18:34:00
1:54 PM,93.2,37.4,14,29.55,10.0,NW,25.3,29.9,N/A,,Clear,310,2013-05-14 18:54:00
2:13 PM,93.2,28.4,10,29.55,10.0,NW,27.6,35.7,N/A,,Clear,320,2013-05-14 19:13:00
2:33 PM,93.2,35.6,13,29.55,10.0,NNW,27.6,36.8,N/A,,Clear,330,2013-05-14 19:33:00
2:53 PM,95.0,33.8,12,29.56,10.0,NW,26.5,34.5,N/A,,Clear,320,2013-05-14 19:53:00
3:13 PM,95.0,30.2,10,29.57,10.0,WNW,33.4,39.1,N/A,,Clear,300,2013-05-14 20:13:00
3:33 PM,93.2,30.2,11,29.57,10.0,WNW,26.5,33.4,N/A,,Clear,300,2013-05-14 20:33:00
3:53 PM,91.4,28.4,10,29.58,10.0,WNW,29.9,38.0,N/A,,Clear,300,2013-05-14 20:53:00
4:13 PM,91.4,28.4,10,29.59,10.0,WNW,29.9,38.0,N/A,,Clear,300,2013-05-14 21:13:00
4:33 PM,89.6,26.6,10,29.60,10.0,NW,27.6,36.8,N/A,,Clear,320,2013-05-14 21:33:00
4:53 PM,87.8,21.2,9,29.61,10.0,WNW,27.6,36.8,N/A,,Clear,300,2013-05-14 21:53:00
5:13 PM,87.8,19.4,8,29.61,10.0,NW,27.6,36.8,N/A,,Clear,310,2013-05-14 22:13:00
5:33 PM,87.8,15.8,7,29.62,10.0,WNW,28.8,38.0,N/A,,Clear,300,2013-05-14 22:33:00
5:54 PM,87.8,17.6,8,29.62,10.0,WNW,23.0,36.8,N/A,,Clear,300,2013-05-14 22:54:00
6:14 PM,86.0,17.6,8,29.62,10.0,WNW,29.9,35.7,N/A,,Clear,300,2013-05-14 23:14:00
6:34 PM,84.2,19.4,9,29.63,10.0,WNW,28.8,38.0,N/A,,Clear,300,2013-05-14 23:34:00
6:53 PM,84.2,24.8,11,29.63,10.0,NW,26.5,34.5,N/A,,Clear,320,2013-05-14 23:53:00
7:14 PM,82.4,28.4,14,29.64,10.0,NW,27.6,33.4,N/A,,Clear,310,2013-05-15 00:14:00
7:33 PM,80.6,28.4,15,29.65,10.0,NW,25.3,33.4,N/A,,Clear,310,2013-05-15 00:33:00
7:54 PM,78.8,35.6,21,29.66,10.0,NW,24.2,33.4,N/A,,Clear,320,2013-05-15 00:54:00
8:13 PM,77.0,37.4,24,29.67,10.0,NW,25.3,34.5,N/A,,Clear,320,2013-05-15 01:13:00
8:33 PM,75.2,37.4,25,29.68,10.0,NW,19.6,-,N/A,,Clear,320,2013-05-15 01:33:00
8:54 PM,73.4,39.2,29,29.70,10.0,NW,25.3,32.2,N/A,,Clear,320,2013-05-15 01:54:00
9:14 PM,71.6,42.8,35,29.72,10.0,NW,21.9,29.9,N/A,,Clear,320,2013-05-15 02:14:00
9:33 PM,69.8,41.0,35,29.73,10.0,NW,21.9,31.1,N/A,,Clear,320,2013-05-15 02:33:00
9:53 PM,68.0,41.0,37,29.75,10.0,NW,17.3,-,N/A,,Clear,320,2013-05-15 02:53:00
10:13 PM,66.2,42.8,43,29.76,10.0,NNW,13.8,-,N/A,,Clear,330,2013-05-15 03:13:00
10:33 PM,66.2,42.8,43,29.77,10.0,NNW,15.0,24.2,N/A,,Clear,330,2013-05-15 03:33:00
10:53 PM,64.4,42.8,45,29.77,10.0,NW,16.1,-,N/A,,Clear,320,2013-05-15 03:53:00
11:14 PM,64.4,42.8,45,29.78,10.0,NW,13.8,-,N/A,,Clear,320,2013-05-15 04:14:00
11:34 PM,62.6,42.8,48,29.79,10.0,NW,12.7,-,N/A,,Clear,320,2013-05-15 04:34:00
11:53 PM,62.6,42.8,48,29.80,10.0,NW,13.8,-,N/A,,Clear,320,2013-05-15 04:53:00